TimeEDT,TemperatureF,Dew PointF,Humidity,Sea Level PressureIn,VisibilityMPH,Wind Direction,Wind SpeedMPH,Gust SpeedMPH,PrecipitationIn,Events,Conditions,WindDirDegrees,DateUTC
12:15 AM,35.6,33.8,93,29.66,10.0,SW,8.1,-,N/A,,Overcast,230,2012-11-02 04:15:00
12:35 AM,35.6,33.8,93,29.65,10.0,WSW,5.8,-,N/A,,Mostly Cloudy,240,2012-11-02 04:35:00
12:55 AM,35.6,33.8,93,29.65,10.0,WSW,8.1,-,N/A,,Overcast,240,2012-11-02 04:55:00
1:15 AM,35.6,33.8,93,29.65,10.0,SW,6.9,-,N/A,,Mostly Cloudy,230,2012-11-02 05:15:00
1:35 AM,35.6,33.8,93,29.65,10.0,SW,6.9,-,N/A,,Mostly Cloudy,230,2012-11-02 05:35:00
1:55 AM,35.6,33.8,93,29.65,4.0,West,10.4,-,0.01,,Overcast,260,2012-11-02 05:55:00
2:15 AM,35.6,32.0,87,29.65,5.0,West,10.4,-,0.02,,Overcast,260,2012-11-02 06:15:00
2:35 AM,33.8,30.2,87,29.66,4.0,West,9.2,-,0.03,,Overcast,260,2012-11-02 06:35:00
2:55 AM,33.8,32.0,93,29.65,5.0,WSW,5.8,-,0.04,,Overcast,250,2012-11-02 06:55:00
3:15 AM,33.8,32.0,93,29.65,8.0,WSW,6.9,-,N/A,,Overcast,250,2012-11-02 07:15:00
3:35 AM,35.6,33.8,93,29.65,7.0,West,6.9,-,N/A,,Overcast,260,2012-11-02 07:35:00
3:55 AM,35.6,33.8,93,29.65,10.0,WSW,6.9,-,N/A,,Mostly Cloudy,250,2012-11-02 07:55:00
4:15 AM,35.6,33.8,93,29.65,10.0,WSW,6.9,-,N/A,,Mostly Cloudy,240,2012-11-02 08:15:00
4:35 AM,35.6,33.8,93,29.64,7.0,SW,4.6,-,N/A,,Overcast,230,2012-11-02 08:35:00
4:55 AM,35.6,33.8,93,29.64,6.0,West,3.5,-,N/A,,Overcast,280,2012-11-02 08:55:00
5:15 AM,35.6,32.0,87,29.64,10.0,West,5.8,-,N/A,,Mostly Cloudy,270,2012-11-02 09:15:00
5:35 AM,35.6,32.0,87,29.64,9.0,West,8.1,-,0.01,,Mostly Cloudy,270,2012-11-02 09:35:00
5:55 AM,35.6,32.0,87,29.65,10.0,West,8.1,-,0.01,,Overcast,280,2012-11-02 09:55:00
6:15 AM,35.6,32.0,87,29.65,10.0,WNW,13.8,17.3,N/A,,Overcast,300,2012-11-02 10:15:00
6:35 AM,35.6,32.0,87,29.65,10.0,WNW,15.0,-,N/A,,Overcast,300,2012-11-02 10:35:00
6:55 AM,35.6,30.2,81,29.65,10.0,WNW,13.8,-,N/A,,Overcast,290,2012-11-02 10:55:00
7:15 AM,35.6,30.2,81,29.66,10.0,WNW,13.8,20.7,N/A,,Overcast,290,2012-11-02 11:15:00
7:35 AM,35.6,30.2,81,29.66,10.0,WNW,15.0,-,N/A,,Overcast,290,2012-11-02 11:35:00
7:55 AM,35.6,32.0,87,29.67,10.0,WNW,15.0,21.9,N/A,,Overcast,300,2012-11-02 11:55:00
8:15 AM,35.6,30.2,81,29.67,9.0,NW,12.7,-,N/A,,Mostly Cloudy,310,2012-11-02 12:15:00
8:35 AM,35.6,32.0,87,29.68,10.0,WNW,10.4,-,N/A,,Overcast,300,2012-11-02 12:35:00
8:55 AM,35.6,32.0,87,29.69,9.0,North,9.2,-,N/A,,Overcast,350,2012-11-02 12:55:00
9:15 AM,33.8,30.2,87,29.70,1.8,NW,9.2,-,0.01,,Overcast,320,2012-11-02 13:15:00
9:35 AM,33.8,30.2,87,29.70,1.0,NW,8.1,-,0.03,,Overcast,320,2012-11-02 13:35:00
9:55 AM,33.8,30.2,87,29.71,10.0,NW,9.2,-,0.03,,Mostly Cloudy,320,2012-11-02 13:55:00
10:15 AM,33.8,30.2,87,29.72,5.0,NNW,11.5,17.3,N/A,,Mostly Cloudy,330,2012-11-02 14:15:00
10:35 AM,33.8,30.2,87,29.72,10.0,NW,10.4,-,N/A,,Overcast,320,2012-11-02 14:35:00
10:55 AM,35.6,30.2,81,29.73,10.0,NW,10.4,-,N/A,,Overcast,320,2012-11-02 14:55:00
11:15 AM,33.8,30.2,87,29.73,5.0,NW,9.2,16.1,N/A,,Overcast,320,2012-11-02 15:15:00
11:35 AM,35.6,30.2,81,29.74,6.0,NW,12.7,-,N/A,,Overcast,310,2012-11-02 15:35:00
11:55 AM,35.6,30.2,81,29.74,9.0,NW,11.5,-,N/A,,Overcast,320,2012-11-02 15:55:00
12:15 PM,35.6,30.2,81,29.74,10.0,NW,8.1,-,N/A,,Overcast,310,2012-11-02 16:15:00
12:35 PM,35.6,28.4,75,29.74,10.0,NW,13.8,18.4,N/A,,Overcast,310,2012-11-02 16:35:00
12:55 PM,35.6,28.4,75,29.75,10.0,NW,10.4,-,N/A,,Overcast,310,2012-11-02 16:55:00
1:15 PM,35.6,28.4,75,29.75,10.0,WNW,10.4,19.6,N/A,,Mostly Cloudy,300,2012-11-02 17:15:00
1:35 PM,37.4,28.4,70,29.75,10.0,NW,15.0,23.0,N/A,,Overcast,310,2012-11-02 17:35:00
1:55 PM,35.6,28.4,75,29.75,10.0,NW,11.5,-,N/A,,Overcast,310,2012-11-02 17:55:00
2:15 PM,35.6,28.4,75,29.76,10.0,NW,16.1,20.7,N/A,,Overcast,310,2012-11-02 18:15:00
2:35 PM,35.6,28.4,75,29.77,7.0,WNW,17.3,20.7,N/A,,Overcast,300,2012-11-02 18:35:00
2:55 PM,35.6,28.4,75,29.77,10.0,NW,13.8,17.3,N/A,,Overcast,310,2012-11-02 18:55:00
3:15 PM,35.6,28.4,75,29.78,10.0,WNW,10.4,-,N/A,,Overcast,300,2012-11-02 19:15:00
3:35 PM,35.6,28.4,75,29.78,7.0,NW,15.0,21.9,N/A,,Overcast,310,2012-11-02 19:35:00
3:55 PM,35.6,30.2,81,29.79,5.0,NW,12.7,18.4,N/A,,Overcast,320,2012-11-02 19:55:00
4:15 PM,35.6,30.2,81,29.79,4.0,NW,10.4,17.3,N/A,,Overcast,310,2012-11-02 20:15:00
4:35 PM,35.6,30.2,81,29.80,9.0,NW,9.2,16.1,N/A,,Overcast,310,2012-11-02 20:35:00
4:55 PM,35.6,30.2,81,29.81,7.0,NW,12.7,20.7,N/A,,Mostly Cloudy,320,2012-11-02 20:55:00
5:15 PM,33.8,30.2,87,29.81,2.5,WNW,13.8,-,N/A,,Overcast,300,2012-11-02 21:15:00
5:35 PM,33.8,30.2,87,29.81,10.0,WNW,9.2,-,N/A,,Overcast,300,2012-11-02 21:35:00
5:55 PM,35.6,28.4,75,29.83,5.0,NW,15.0,18.4,N/A,,Overcast,310,2012-11-02 21:55:00
6:15 PM,33.8,30.2,87,29.83,8.0,WNW,10.4,17.3,N/A,,Overcast,300,2012-11-02 22:15:00
6:35 PM,33.8,30.2,87,29.84,7.0,NW,12.7,19.6,N/A,,Overcast,320,2012-11-02 22:35:00
6:55 PM,33.8,30.2,87,29.84,4.0,NW,9.2,17.3,N/A,,Overcast,320,2012-11-02 22:55:00
7:15 PM,33.8,30.2,87,29.85,4.0,NW,12.7,19.6,N/A,,Overcast,310,2012-11-02 23:15:00
7:35 PM,33.8,30.2,87,29.86,3.0,WNW,12.7,-,N/A,,Mostly Cloudy,300,2012-11-02 23:35:00
7:55 PM,33.8,30.2,87,29.86,2.0,NW,11.5,18.4,N/A,,Overcast,320,2012-11-02 23:55:00
8:15 PM,33.8,30.2,87,29.87,3.0,NW,9.2,-,0.01,,Overcast,310,2012-11-03 00:15:00
8:35 PM,33.8,30.2,87,29.87,4.0,NW,15.0,23.0,0.01,,Overcast,320,2012-11-03 00:35:00
8:55 PM,33.8,28.4,81,29.87,10.0,WNW,11.5,17.3,0.01,,Overcast,300,2012-11-03 00:55:00
9:15 PM,33.8,28.4,81,29.87,10.0,WNW,10.4,-,N/A,,Overcast,300,2012-11-03 01:15:00
9:35 PM,33.8,28.4,81,29.88,10.0,NW,11.5,-,N/A,,Overcast,310,2012-11-03 01:35:00
9:55 PM,33.8,30.2,87,29.88,3.0,NNW,11.5,-,N/A,,Mostly Cloudy,330,2012-11-03 01:55:00
10:15 PM,33.8,30.2,87,29.88,3.0,NNW,4.6,-,N/A,,Overcast,340,2012-11-03 02:15:00
10:35 PM,33.8,30.2,87,29.89,3.0,NW,9.2,-,0.01,,Mostly Cloudy,320,2012-11-03 02:35:00
10:55 PM,33.8,28.4,81,29.89,3.0,WNW,9.2,-,0.01,,Overcast,300,2012-11-03 02:55:00
11:15 PM,33.8,30.2,87,29.89,5.0,WNW,8.1,-,N/A,,Overcast,300,2012-11-03 03:15:00
11:35 PM,33.8,30.2,87,29.89,9.0,WNW,8.1,-,N/A,,Mostly Cloudy,300,2012-11-03 03:35:00
11:55 PM,33.8,30.2,87,29.90,10.0,NW,8.1,-,N/A,,Overcast,310,2012-11-03 03:55:00